{"data":{"norad_id":56120,"epoch":"2026-05-25T04:03:27.774144Z","epoch_age_seconds":63988,"freshness":"FRESH","line1":"1 56120U 23046AD  26145.16907146 -.00001020  00000+0 -27565-4 0  9994","line2":"2 56120  43.0033  75.3344 0000547 242.4999 117.5798 15.27579499173894","mean_motion":15.27579499,"eccentricity":5.47e-5,"inclination_deg":43.0033,"raan_deg":75.3344,"arg_perigee_deg":242.4999,"mean_anomaly_deg":117.5798,"bstar":-2.7565e-5,"rev_number":17389,"period_min":94.266779630302,"perigee_km":482.67528925278,"apogee_km":483.42590317581,"semimajor_km":6861.1875962143,"source":"CELESTRAK","updated_at":"2026-05-25T13:38:17.958253Z"}}